GFSSE_sfc_temp_093.txt.gz
Temp
69 71 73 74 74 74 74 74 74 74 75 75 75 76 76 76 76 76 76 76 77 77 78 78 78 78 77 77 76 75 75 74 74 75 76 76 76 75 75 74 73 73 74
71 73 72 73 74 74 74 74 74 74 75 75 75 75 75 76 76 76 76 76 76 77 78 77 77 77 77 76 75 74 74 74 74 74 74 75 75 75 74 73 73 73 74
70 72 73 73 74 74 74 74 74 75 75 75 75 75 75 75 75 76 75 75 76 78 78 77 77 76 76 74 74 74 73 73 73 73 73 70 73 74 74 73 73 73 74
71 72 72 72 73 74 74 74 74 75 75 75 75 75 75 75 75 75 75 75 76 77 77 77 77 76 74 73 72 72 72 72 71 72 71 72 73 74 74 74 73 73 73
70 71 72 72 72 73 73 73 74 74 74 74 74 75 75 75 75 75 74 74 75 76 77 77 76 74 72 72 71 71 71 71 70 69 68 70 70 73 73 73 72 72 72
69 70 70 71 72 73 74 74 74 74 73 73 74 75 75 75 75 74 74 74 75 76 77 76 74 72 71 71 70 70 70 69 68 66 68 71 71 73 73 72 72 71 70
68 68 69 70 71 73 74 73 73 73 72 73 74 74 74 74 74 73 73 74 75 76 76 74 72 71 71 70 70 69 69 68 67 68 68 69 70 72 72 71 71 71 70
68 68 68 71 71 71 72 72 72 71 71 71 71 70 71 72 71 71 72 73 73 74 73 72 71 71 70 69 69 68 67 68 68 67 69 70 71 72 72 71 70 70 70
67 67 67 68 70 70 70 70 69 69 70 70 69 69 70 69 68 69 70 72 72 72 71 71 71 70 69 69 67 67 66 67 66 67 69 68 71 71 71 70 70 70 70
65 66 66 67 67 67 66 68 68 68 67 67 68 67 67 68 68 68 69 69 71 72 71 71 69 69 69 68 67 66 66 66 65 66 66 68 70 71 71 70 70 69 70
62 63 64 64 64 64 65 67 67 67 68 67 67 67 65 64 64 66 67 68 69 70 69 69 69 68 67 67 66 66 66 65 65 65 66 68 70 71 70 69 69 69 69
59 61 65 62 62 62 66 66 64 66 66 65 64 64 63 64 63 65 67 67 68 68 69 68 67 67 67 65 65 66 63 65 64 64 65 68 70 71 70 69 69 70 68
60 60 62 62 62 61 62 63 63 62 61 62 62 63 63 62 63 63 65 66 66 68 66 66 65 65 64 64 62 61 63 65 63 64 66 68 71 71 70 70 70 69 68
59 60 61 62 63 62 64 61 61 61 63 63 62 63 63 62 63 64 65 65 63 64 64 65 61 64 62 63 63 62 62 63 62 63 66 67 70 71 70 70 69 68 68
59 60 61 61 61 63 64 62 60 61 63 63 62 63 64 63 62 63 64 64 63 63 63 61 60 62 62 62 61 61 60 60 62 63 64 65 66 68 70 70 70 68 68
61 60 60 61 60 61 61 63 63 62 64 63 62 63 65 64 63 63 63 63 62 63 63 63 60 60 59 61 60 60 60 60 62 60 63 64 65 67 69 70 69 69 68
62 62 60 60 60 61 60 60 62 62 63 63 62 63 64 65 64 64 63 62 62 63 62 60 57 59 59 61 60 60 60 60 60 60 59 59 63 64 66 68 68 68 68
62 60 60 62 60 60 59 59 60 60 62 63 63 64 64 65 65 64 63 61 61 61 61 59 59 58 57 59 58 59 59 60 60 59 58 58 57 61 64 65 66 67 67
63 61 60 60 59 59 58 58 58 59 60 61 63 64 64 64 64 64 62 61 60 60 61 60 56 59 56 58 58 57 57 59 59 61 59 58 58 58 58 63 64 64 65
62 61 61 60 59 59 59 58 56 56 58 58 59 62 63 64 64 64 62 60 60 59 58 60 59 58 56 59 62 58 57 56 59 59 59 61 59 58 58 60 61 61 62
60 60 60 59 60 59 58 56 56 56 56 56 56 57 61 63 63 63 62 59 59 60 61 61 60 60 57 58 58 54 55 55 56 58 59 59 59 60 59 59 59 57 60
61 62 61 60 60 60 60 59 58 57 56 56 57 56 58 62 63 63 62 59 59 60 61 61 62 57 56 60 57 55 51 54 56 57 56 57 57 60 59 59 59 57 57
61 61 60 60 60 60 57 55 55 55 55 54 55 56 58 61 62 62 61 60 59 57 59 61 62 62 58 54 61 55 49 49 51 52 54 55 55 56 58 59 59 59 59
59 60 59 61 60 60 56 55 55 54 53 55 55 56 58 61 61 61 62 60 59 58 60 60 62 63 60 57 55 56 55 54 50 47 52 54 55 56 57 58 59 59 60
59 58 60 60 59 59 56 56 54 53 53 53 55 55 56 58 59 61 60 60 59 59 58 57 58 59 60 58 59 54 53 53 53 50 48 50 53 57 58 58 59 59 59
58 59 59 58 58 59 56 55 55 56 55 52 54 54 55 56 56 58 59 58 58 57 56 55 56 58 57 58 57 54 54 53 52 52 50 51 53 53 58 57 56 57 58

GFSSE_sfc_temp_096.txt.gz
Temp
69 70 73 74 74 74 74 74 74 74 75 76 76 76 76 76 76 76 76 76 77 78 78 78 77 77 78 77 76 76 75 75 75 75 76 76 76 76 75 74 74 74 75
70 71 72 73 74 74 74 74 74 74 75 76 76 75 75 75 75 76 76 76 77 78 79 78 77 77 77 76 74 74 74 73 73 74 75 75 76 75 75 73 73 74 74
70 72 72 72 73 74 74 74 74 75 75 76 75 75 75 75 75 75 75 76 77 78 78 78 77 77 76 74 74 74 73 73 73 73 73 71 73 75 74 73 73 74 74
70 72 71 72 73 74 74 74 74 75 75 75 75 75 75 75 75 75 75 75 76 77 78 78 78 76 75 73 73 73 72 72 71 71 70 71 73 75 74 74 74 74 74
69 73 70 72 72 73 73 73 74 75 74 74 75 75 75 75 75 75 74 75 76 77 77 77 76 75 73 72 71 71 71 71 70 70 68 68 71 74 74 74 73 73 72
68 71 71 71 72 73 73 73 74 73 73 73 74 75 75 75 75 75 73 74 75 76 77 76 75 72 71 71 71 71 70 69 68 66 69 70 70 74 73 72 72 71 71
67 68 69 70 71 72 73 73 73 73 72 73 73 74 74 74 74 73 73 73 74 75 75 74 72 71 70 70 70 69 69 68 66 65 68 68 70 73 73 72 71 71 71
67 67 68 70 71 71 72 72 72 71 72 72 73 73 73 72 71 72 73 71 73 73 73 72 71 70 70 70 69 68 68 68 67 67 68 68 71 72 72 72 71 71 70
66 66 67 68 70 70 70 70 70 70 70 71 70 71 71 70 70 72 71 71 70 72 71 71 70 70 69 68 68 67 67 67 65 66 69 69 72 72 72 71 70 71 71
65 65 65 66 67 67 68 68 69 69 69 68 69 69 69 69 70 70 69 70 70 70 71 70 69 69 68 67 67 66 66 66 64 65 67 69 71 72 71 71 70 70 71
64 64 64 64 64 64 65 68 68 68 67 67 67 67 66 65 66 66 67 69 70 71 71 70 69 68 67 66 66 66 65 63 63 63 66 69 71 72 71 71 71 70 69
63 62 65 62 62 62 64 67 67 67 67 66 66 65 64 64 62 65 67 68 71 70 69 68 68 67 66 64 64 64 61 62 62 63 66 69 71 72 71 70 69 69 68
62 60 65 62 61 61 62 64 65 65 64 64 64 64 64 63 63 62 63 64 65 68 66 65 66 66 63 63 61 60 61 61 62 64 67 68 70 71 70 70 69 68 68
59 61 64 64 61 60 60 62 63 63 62 62 62 62 62 62 62 62 62 63 65 65 64 62 63 62 62 61 61 60 61 60 60 62 66 67 69 70 71 70 69 68 68
58 59 61 64 63 62 61 60 62 62 63 62 61 62 63 62 61 62 63 63 64 65 63 60 60 61 61 61 61 61 61 61 61 62 62 66 67 69 70 70 70 69 68
61 59 59 63 63 64 62 61 60 61 63 63 62 62 62 63 62 62 63 63 62 63 61 60 61 61 61 61 60 61 59 61 61 61 62 66 65 67 69 70 70 68 68
62 61 59 60 60 61 60 61 61 62 63 62 62 63 64 63 62 62 62 62 61 61 61 59 59 60 58 60 59 60 60 59 59 60 60 61 64 64 66 68 68 68 68
61 60 60 62 61 59 59 59 59 62 63 63 62 62 63 63 63 63 62 61 61 60 59 59 60 59 59 58 57 57 58 59 59 59 60 61 60 63 65 65 67 68 67
61 60 59 61 61 59 58 57 57 59 62 63 63 63 64 64 63 62 62 61 60 59 59 59 56 59 58 57 57 55 57 57 59 60 59 59 60 60 61 64 64 64 66
61 61 60 61 59 58 58 57 57 57 57 59 62 63 64 64 64 63 62 60 61 59 59 60 57 58 59 58 60 56 55 55 57 57 58 61 60 60 60 61 62 62 62
59 59 59 60 60 60 59 58 57 57 57 56 56 60 62 64 63 63 62 59 60 60 59 59 58 57 57 59 56 55 54 54 56 56 57 58 58 59 59 60 61 61 62
59 60 59 61 61 61 60 61 58 58 56 54 54 57 58 61 63 63 61 59 59 58 58 59 60 57 56 60 56 55 51 53 55 57 56 57 57 59 59 59 60 59 60
58 59 60 62 61 61 61 59 56 55 55 54 54 53 55 57 61 63 61 60 58 57 57 58 60 61 57 57 60 54 50 49 51 54 55 56 55 56 58 58 58 59 59
59 61 61 62 61 61 59 57 55 55 52 53 53 54 57 57 60 61 61 60 59 57 57 59 62 61 59 57 59 57 56 54 50 48 53 55 55 55 56 57 58 59 59
59 62 62 61 61 60 57 55 54 51 55 57 52 55 57 58 59 61 61 60 59 57 58 59 60 60 61 59 58 53 53 53 53 51 48 50 53 56 58 57 58 59 59
61 62 61 60 60 59 57 54 53 52 53 52 54 54 57 57 59 60 60 60 59 57 57 58 59 61 59 58 56 56 55 54 52 52 50 52 53 55 58 59 58 58 59

GFSSE_sfc_temp_099.txt.gz
Temp
76 79 75 75 74 74 74 74 74 75 76 76 76 76 76 76 76 76 76 76 77 78 78 78 77 78 78 77 77 76 76 75 75 76 76 77 77 76 75 75 76 80 75
81 79 74 75 74 74 74 74 74 75 76 76 76 76 75 75 76 76 76 76 77 78 78 78 77 77 77 76 75 75 74 74 74 74 75 76 76 76 75 75 75 77 75
78 78 77 73 74 74 75 74 74 75 76 76 76 76 76 76 76 76 76 76 77 78 78 78 77 77 76 75 74 74 74 73 73 74 75 81 79 75 75 74 74 74 74
79 77 78 72 73 74 74 74 74 75 76 76 75 76 76 76 76 76 75 75 77 78 78 78 78 77 75 73 73 73 73 72 72 73 81 81 80 75 75 74 74 75 74
78 78 77 72 72 73 73 74 74 75 75 75 75 76 76 76 76 76 75 75 76 77 77 78 77 75 73 72 72 72 72 71 71 77 82 81 81 77 75 75 74 74 74
77 78 73 71 72 73 73 74 74 74 73 74 74 75 76 76 76 75 74 75 76 77 77 77 75 73 72 71 71 71 70 70 72 81 81 78 80 75 74 73 72 72 72
75 75 74 70 71 73 73 74 73 73 73 73 74 74 75 77 75 72 71 74 75 75 75 74 72 71 71 70 70 70 69 69 80 81 80 79 78 74 74 73 72 72 71
75 74 75 72 71 72 73 73 72 72 72 72 74 74 74 73 72 71 71 72 74 73 73 72 71 70 70 70 69 68 68 70 77 79 79 79 74 74 74 72 71 71 71
74 73 74 75 74 70 70 70 70 70 71 71 72 72 72 71 71 71 72 73 73 72 72 71 70 69 70 69 68 67 67 69 78 78 78 78 72 73 73 72 71 71 70
73 73 73 75 75 75 75 69 69 70 70 70 70 69 70 70 70 71 71 72 72 71 71 70 69 68 68 68 67 66 66 68 78 78 78 78 72 73 72 72 71 70 70
69 73 73 73 74 74 75 72 69 70 69 68 70 69 68 75 74 74 72 70 70 70 70 69 68 67 66 66 66 66 68 77 77 77 78 70 72 72 72 71 70 70 70
67 69 73 72 73 73 73 71 71 70 68 68 70 72 72 71 71 72 70 68 69 69 69 68 67 66 68 71 72 67 76 75 76 76 78 69 71 72 72 71 70 70 69
69 67 69 70 71 72 70 68 68 68 67 66 68 68 67 66 66 67 68 69 71 69 68 66 66 70 73 74 74 74 73 73 75 76 73 68 70 72 72 71 70 69 69
68 68 68 68 70 70 71 67 67 67 68 66 65 66 65 65 65 65 67 69 67 68 66 64 66 71 71 72 72 71 72 74 75 75 73 67 69 71 72 71 70 69 68
70 70 68 67 68 70 70 71 69 67 66 66 65 65 65 66 66 68 66 65 65 65 63 62 63 64 68 71 72 71 71 72 73 75 75 66 67 70 71 71 70 70 69
72 71 69 66 67 69 69 69 70 69 67 66 64 65 67 66 65 64 65 63 64 65 63 61 61 64 69 72 70 71 71 72 73 73 75 73 65 67 69 70 71 70 69
73 72 68 66 66 66 66 69 69 69 68 65 65 66 67 67 67 65 63 63 63 64 61 61 60 61 70 71 70 70 71 71 72 72 73 71 69 64 66 68 69 69 69
74 70 69 68 65 65 65 67 67 66 66 67 67 68 67 68 68 65 62 63 62 61 59 59 59 58 63 68 68 70 70 70 70 68 72 73 70 71 65 65 67 67 67
73 71 69 68 64 64 66 67 67 65 64 65 66 65 67 66 68 66 65 63 61 59 59 58 58 59 61 66 68 69 69 70 70 71 71 71 71 71 72 65 64 65 66
73 71 70 68 65 64 66 66 66 64 63 65 65 65 65 67 67 65 63 62 61 59 57 57 57 58 61 66 68 67 68 69 70 70 70 72 72 70 71 71 69 68 63
70 68 68 66 63 63 63 61 60 61 62 62 62 66 64 64 65 64 62 61 62 60 58 57 57 57 60 64 63 61 62 65 66 67 69 70 70 70 70 71 71 72 69
68 68 68 67 63 65 64 65 65 62 61 63 62 61 64 66 64 64 62 61 61 61 60 58 59 59 62 62 62 61 53 56 61 65 67 67 68 69 67 67 68 68 70
68 67 67 68 64 65 64 64 61 59 58 58 59 62 61 62 62 64 62 62 61 60 59 61 61 62 59 63 64 64 53 52 57 62 63 66 66 67 69 69 68 68 68
68 68 68 68 65 65 64 62 61 62 58 58 62 63 66 64 66 62 63 61 60 60 58 59 63 63 62 61 61 62 66 64 58 55 61 61 65 64 66 67 67 67 67
68 66 67 67 66 64 63 63 61 59 61 63 63 63 64 64 65 67 62 61 59 59 59 57 58 63 63 63 59 58 58 61 63 61 56 55 60 65 67 66 66 66 66
67 66 66 64 64 63 61 61 59 59 62 62 60 62 63 62 63 66 63 63 59 59 59 58 59 59 60 61 61 58 58 58 58 57 56 58 59 63 64 64 63 64 66

GFSSE_sfc_temp_102.txt.gz
Temp
89 91 74 75 75 75 74 75 75 75 76 76 76 76 76 76 76 76 76 77 77 78 78 78 78 78 78 78 77 76 76 75 75 76 77 77 77 77 76 76 77 82 75
92 90 73 75 75 75 75 75 75 75 76 76 76 76 76 76 76 76 76 77 77 78 78 78 77 78 78 77 76 75 75 74 74 75 76 77 77 77 77 76 76 79 75
89 89 81 75 74 75 75 75 75 76 76 76 76 76 76 76 76 76 76 76 77 78 78 78 78 78 77 75 74 74 74 73 74 74 76 83 82 76 75 74 74 75 75
91 89 86 74 73 75 74 74 75 76 76 76 76 76 76 76 76 76 76 76 77 78 78 78 78 77 75 74 73 73 73 73 73 74 81 83 81 75 75 75 75 75 75
91 90 87 73 73 74 74 74 75 75 75 75 75 76 76 76 76 75 75 76 76 77 78 78 77 75 73 72 72 72 72 72 73 77 84 81 80 77 75 75 74 74 75
90 89 76 71 72 73 74 74 74 74 74 74 75 75 76 76 76 76 75 76 76 76 76 77 75 73 72 71 71 71 71 71 71 86 84 80 79 75 75 74 73 72 72
87 88 81 70 72 73 74 74 74 73 74 74 74 75 75 76 76 75 74 74 75 75 75 75 73 72 71 71 71 70 70 71 87 88 86 83 78 74 74 73 72 72 72
84 84 83 73 71 72 73 73 72 72 73 73 73 74 76 75 73 73 72 72 71 72 74 73 74 71 70 70 69 69 69 70 84 88 87 80 74 74 74 73 71 71 71
84 82 82 80 77 71 71 71 71 71 72 72 72 72 72 72 72 72 72 72 71 73 73 72 71 69 69 68 68 68 68 71 86 85 86 78 73 74 73 72 71 71 71
82 82 82 82 81 80 79 70 70 70 70 71 71 70 69 69 70 71 70 71 73 73 73 71 70 69 68 67 66 67 68 70 84 85 84 76 72 74 73 72 71 71 70
81 82 82 83 81 80 80 77 70 70 70 70 71 69 69 80 78 77 74 71 71 71 71 71 68 68 66 66 66 67 68 83 82 84 79 70 72 73 73 71 71 71 70
80 81 84 83 83 81 80 79 79 79 77 76 78 79 80 81 81 80 76 68 70 70 69 70 70 66 66 73 75 68 82 79 83 80 74 69 72 73 72 71 70 70 70
83 82 83 82 82 82 83 76 73 73 73 75 73 76 77 76 77 78 79 78 77 70 73 71 66 66 68 73 75 76 79 81 84 79 71 68 71 72 72 71 71 70 69
84 80 79 81 80 80 84 78 77 69 71 72 71 70 71 73 71 70 72 73 71 74 72 68 65 66 71 76 77 76 79 82 83 77 72 67 70 72 72 71 71 70 69
84 81 77 78 80 80 80 79 74 70 70 73 71 69 69 72 70 68 70 70 75 71 67 65 65 66 73 73 76 78 79 80 81 80 75 66 68 70 72 72 71 70 69
86 84 82 78 78 80 80 79 80 78 73 71 71 69 69 71 69 68 69 71 70 72 68 65 65 65 72 74 76 78 79 80 80 79 75 74 66 68 69 71 71 71 70
88 86 81 77 77 78 79 80 80 82 76 72 69 69 70 69 70 68 68 68 70 69 63 63 63 63 64 73 76 78 78 78 79 79 78 73 72 64 66 69 70 70 69
89 86 83 78 76 73 78 80 81 80 77 76 72 70 69 71 72 71 69 67 68 65 63 61 61 61 63 69 73 77 78 79 78 78 80 77 75 77 66 66 67 68 68
89 86 83 78 75 70 71 78 78 72 70 73 73 72 72 74 73 72 69 65 65 61 61 61 60 61 62 69 73 74 77 78 77 77 76 77 73 76 74 66 65 65 66
88 85 83 79 76 69 68 77 78 68 68 69 68 73 73 72 73 72 70 62 61 59 58 59 59 60 61 69 72 73 74 76 76 76 73 78 75 72 73 74 70 69 63
85 83 81 78 77 69 68 70 68 64 65 69 67 70 72 71 70 69 67 63 61 59 58 59 58 58 59 64 65 65 66 71 71 70 71 76 76 71 73 73 72 75 70
84 81 80 80 78 73 75 76 75 70 67 70 68 71 72 71 68 68 65 64 61 60 59 58 58 57 58 62 61 63 55 58 65 68 70 72 74 77 75 75 74 76 77
83 81 80 80 79 75 78 78 74 71 67 66 67 64 68 71 67 65 65 63 61 61 60 60 60 60 58 60 64 65 55 55 59 65 67 69 71 74 76 75 75 73 73
84 83 81 81 80 76 77 75 70 69 67 71 70 66 65 69 67 65 64 64 62 60 59 62 63 61 64 61 66 70 71 69 60 57 65 67 68 69 72 75 74 74 74
86 82 80 80 80 76 76 75 72 73 75 75 71 67 68 71 71 67 62 64 62 61 60 60 63 63 64 64 66 67 68 68 69 67 62 61 65 69 73 71 72 73 74
86 82 78 77 77 76 73 73 72 72 72 71 70 70 70 68 71 70 69 62 62 62 61 60 60 63 63 66 69 69 67 63 64 64 66 64 64 68 70 71 71 72 73

GFSSE_sfc_temp_105.txt.gz
Temp
96 89 74 75 75 75 75 75 76 75 76 76 76 76 76 76 76 76 76 77 77 78 79 78 78 78 78 77 77 76 76 75 75 76 77 77 77 78 77 76 77 80 75
98 90 73 74 75 75 75 75 75 75 76 76 76 76 76 76 76 76 76 77 77 79 78 78 78 78 78 77 76 75 75 74 74 75 76 77 77 78 77 76 76 77 75
95 90 82 74 75 75 75 76 76 76 76 76 76 76 76 76 76 76 76 76 77 78 78 78 78 78 77 75 74 74 74 74 74 74 76 82 81 76 75 74 74 74 75
97 90 88 73 74 75 75 75 76 76 76 76 76 76 76 76 76 76 76 76 77 78 78 78 78 77 75 74 73 73 73 73 73 74 81 80 81 75 75 75 75 75 74
97 95 88 73 73 74 74 74 75 76 75 75 75 76 76 76 76 76 75 76 77 78 78 77 77 75 73 72 72 72 73 73 73 77 81 80 80 77 75 75 74 74 74
96 96 74 72 73 74 74 74 75 75 74 74 75 76 76 76 76 76 75 75 76 77 77 77 76 74 72 71 71 72 72 72 71 84 78 80 80 76 75 74 73 72 72
94 93 82 71 72 74 74 74 74 74 74 74 75 75 75 76 76 75 75 75 75 76 77 76 74 72 71 71 69 70 71 71 82 71 83 81 78 75 74 73 72 72 72
90 90 84 73 72 72 73 74 73 73 73 73 74 74 75 75 74 74 74 74 74 74 74 74 72 72 71 69 69 69 68 68 80 78 77 79 74 74 74 73 72 71 71
89 87 83 80 77 71 71 71 71 72 72 73 73 73 74 73 72 73 72 73 73 73 73 73 72 70 69 69 69 67 67 69 79 81 78 78 73 74 74 72 72 71 71
87 85 84 83 81 80 79 70 70 71 71 71 71 71 71 71 71 71 71 71 72 72 73 72 71 68 67 67 67 67 67 69 84 77 78 78 72 74 73 72 72 71 71
86 85 85 85 84 83 80 78 71 70 71 70 72 69 70 80 78 77 74 71 71 71 71 71 70 67 66 66 66 66 67 82 83 73 80 70 72 74 73 72 71 71 71
84 85 87 86 86 85 81 80 80 80 80 80 80 79 79 81 80 80 77 70 71 70 70 70 70 67 66 66 66 67 75 77 77 73 78 70 72 73 72 71 71 71 71
89 88 88 86 86 84 84 83 85 83 80 80 80 79 78 80 78 80 77 78 78 70 77 74 71 71 66 65 68 74 75 76 76 78 72 69 72 73 72 71 71 71 70
90 89 89 88 85 84 88 84 78 81 81 81 79 78 76 75 75 76 77 77 77 76 76 74 71 67 65 66 68 76 77 76 72 75 71 68 70 72 72 72 71 71 70
92 90 88 88 85 85 83 85 83 81 78 78 79 77 77 76 75 76 75 76 77 75 74 71 69 65 64 65 67 74 76 78 74 75 73 66 68 70 72 72 71 71 70
93 91 88 85 84 85 83 82 81 79 76 78 77 78 77 76 75 76 73 74 72 72 70 71 67 65 64 64 69 75 74 80 77 76 76 73 66 68 70 71 71 71 71
95 94 87 82 83 83 83 83 83 84 81 73 72 76 75 76 75 74 71 70 70 72 71 69 67 64 64 65 71 72 75 80 79 75 75 75 71 64 67 69 70 71 70
96 94 90 86 82 81 83 84 84 85 83 77 74 75 74 74 75 74 71 71 73 69 67 66 64 63 63 63 65 72 76 77 78 77 76 76 74 75 66 67 68 69 69
97 94 90 86 81 80 82 83 83 83 82 82 76 76 75 73 75 73 72 73 73 71 64 63 62 63 62 62 64 75 72 75 77 80 75 75 74 72 73 65 65 65 67
96 93 91 87 82 80 80 81 83 82 76 78 78 77 76 76 74 74 72 72 71 66 63 62 61 62 62 62 64 70 72 74 78 76 78 77 72 70 75 72 71 69 64
92 90 89 85 81 79 72 77 80 75 68 70 71 75 77 78 75 72 71 65 64 61 60 60 60 60 60 62 61 62 67 68 70 70 73 78 75 74 75 71 73 73 70
89 88 87 87 83 80 75 79 83 74 70 75 72 75 75 77 75 73 70 65 62 60 59 59 59 59 59 61 60 63 56 60 66 68 71 73 74 75 72 71 70 74 74
88 87 87 86 84 81 78 81 81 77 72 71 70 72 72 74 73 72 71 66 62 61 59 59 59 59 58 59 64 65 55 54 62 67 67 71 73 75 75 73 73 75 76
88 89 88 87 86 84 79 80 78 76 71 72 72 71 74 72 72 71 69 64 63 60 59 60 62 60 59 57 60 62 63 61 58 57 65 65 68 72 74 76 76 75 76
88 89 87 87 86 85 81 81 80 76 76 77 76 72 70 73 73 69 67 68 63 62 61 61 62 62 61 59 60 60 62 64 66 65 60 60 65 67 73 74 76 76 75
87 86 87 85 85 85 80 80 79 74 77 77 76 71 67 69 70 72 67 64 64 63 62 61 62 63 63 63 62 64 65 63 63 63 65 63 62 65 69 74 73 74 75

GFSSE_sfc_temp_108.txt.gz
Temp
84 79 74 75 76 75 75 76 75 75 75 76 76 76 76 76 76 76 76 77 77 78 79 78 78 78 78 77 76 75 75 75 75 76 77 77 78 77 77 76 76 76 75
85 81 73 75 75 75 75 75 75 75 75 76 75 75 75 75 76 76 76 77 77 78 78 78 78 78 77 76 75 75 74 74 74 75 76 77 77 77 77 76 75 75 75
85 79 78 74 75 75 75 76 76 76 76 76 75 75 75 76 76 76 76 76 77 77 78 78 78 78 77 75 74 74 74 74 74 74 76 76 75 76 75 74 74 74 74
87 82 79 73 74 75 75 75 75 76 76 76 76 75 76 76 76 76 76 76 77 78 78 78 78 77 75 74 73 73 73 73 73 74 74 75 76 75 75 75 74 75 75
88 87 80 73 74 74 74 75 75 75 75 75 75 76 76 76 76 76 75 75 77 77 78 78 77 75 73 72 72 72 73 73 73 75 72 73 74 75 75 75 74 74 74
91 89 72 72 73 74 74 75 75 75 74 74 75 75 76 76 76 75 75 75 76 77 77 77 76 73 72 71 72 72 72 72 72 75 73 74 74 75 75 74 73 72 72
85 79 76 71 73 74 74 75 74 74 74 74 74 75 75 76 76 75 74 74 75 76 76 76 74 72 71 71 71 71 71 71 75 70 76 73 72 75 74 73 72 72 72
81 80 75 73 72 73 73 73 73 73 73 74 75 74 74 74 74 74 74 74 74 74 74 74 72 71 71 70 70 70 70 69 72 70 72 72 73 74 74 73 71 71 71
83 79 76 75 74 72 72 72 71 72 73 75 75 73 73 72 73 73 73 74 74 74 73 72 71 70 69 69 68 67 68 67 68 69 73 72 73 74 73 72 72 71 71
82 80 77 76 75 74 73 70 70 71 71 72 72 71 70 71 71 72 72 72 73 73 73 71 69 68 68 67 67 66 65 66 69 69 70 71 73 74 73 72 72 72 71
81 80 79 78 77 76 75 74 70 71 70 70 72 70 68 73 72 72 72 71 72 72 71 70 68 67 66 66 66 66 66 68 68 72 72 70 73 74 73 72 71 71 71
79 80 81 80 79 78 80 75 74 74 74 73 74 73 73 73 73 76 73 70 70 70 70 68 67 66 67 66 65 66 66 69 67 70 70 70 73 74 73 72 71 71 71
82 81 82 80 79 79 78 77 77 76 75 74 74 73 72 73 72 71 70 70 70 69 69 68 66 67 65 65 65 65 66 68 66 70 69 69 72 73 73 72 71 71 70
84 83 83 82 79 78 79 78 78 77 76 75 74 73 71 71 70 70 69 70 70 70 68 68 67 65 64 64 65 66 67 68 65 71 68 68 70 72 72 72 72 71 70
85 84 83 82 80 79 78 78 76 75 75 75 74 74 72 70 69 70 69 70 70 69 67 66 66 64 64 64 64 66 67 67 68 68 69 66 68 71 72 72 72 71 70
87 84 82 82 80 80 78 77 76 76 74 73 73 73 73 71 69 69 68 68 69 68 68 66 65 64 63 64 63 65 66 68 69 70 68 66 66 68 70 72 72 71 71
88 88 81 80 80 78 78 77 76 75 74 72 72 73 72 72 70 69 68 68 68 67 67 66 65 64 63 63 63 64 65 66 70 71 68 67 65 65 67 69 70 70 70
90 87 82 82 79 78 77 78 78 77 75 73 71 71 72 72 71 69 68 67 67 66 65 65 64 63 63 62 61 62 64 66 70 70 69 68 67 68 64 66 68 69 69
90 86 81 78 78 76 77 77 77 76 75 73 71 71 71 72 71 69 68 68 67 66 65 64 64 64 62 62 63 63 63 67 68 71 69 68 67 67 66 64 65 65 67
88 83 81 78 77 76 77 77 77 75 74 74 73 72 72 72 70 70 68 67 67 65 63 63 63 63 62 62 63 63 61 67 70 69 70 70 68 67 67 65 63 64 64
81 81 81 78 76 76 75 75 75 73 71 70 72 73 71 72 71 69 67 67 66 64 64 62 62 61 61 63 60 59 59 62 66 68 66 68 66 67 66 67 64 64 63
79 81 81 80 77 77 76 76 76 74 70 70 68 69 71 71 70 69 66 64 62 61 61 61 60 59 59 61 59 57 53 57 61 65 64 66 67 67 68 66 66 66 64
78 79 81 81 78 77 75 75 75 71 68 67 68 68 70 70 70 68 66 63 61 61 59 59 60 59 57 60 60 57 53 52 56 61 61 62 64 66 65 65 66 66 66
78 79 80 81 80 78 74 73 72 69 65 67 68 69 69 69 69 68 66 63 61 60 59 59 61 59 59 57 58 60 60 61 54 52 59 60 62 65 63 65 66 67 67
77 76 77 79 82 79 75 74 73 71 70 68 70 68 67 68 68 69 66 64 61 60 60 60 60 59 59 59 57 57 57 57 58 56 53 56 60 62 63 66 66 66 68
77 77 75 78 80 80 75 73 73 72 71 69 69 66 66 67 67 67 66 64 62 61 59 60 61 60 59 59 58 58 57 55 55 57 57 57 57 60 62 62 63 65 66

GFSSE_sfc_temp_111.txt.gz
Temp
74 74 74 75 75 75 75 75 75 74 75 75 75 75 75 76 76 76 76 76 77 78 78 78 77 78 77 78 77 76 75 75 75 76 76 78 78 77 76 75 75 75 75
75 74 73 74 75 75 75 75 75 75 75 75 75 75 75 75 76 76 76 76 77 78 78 78 77 77 77 76 75 75 74 74 74 75 76 77 77 77 76 74 74 74 74
74 74 75 73 74 75 75 75 75 75 75 75 75 75 75 75 76 76 76 76 77 78 78 78 78 77 76 75 74 74 74 74 74 74 75 73 75 76 75 74 74 74 74
74 74 74 73 74 75 75 75 75 75 75 75 75 75 75 75 76 76 75 75 76 77 78 78 78 77 75 73 73 73 73 73 73 73 72 73 75 75 75 75 74 75 74
76 75 74 73 73 74 74 74 74 75 75 75 75 75 76 76 76 76 75 75 76 77 78 78 77 75 73 72 72 73 73 73 73 73 69 70 73 75 75 75 74 74 73
78 76 71 71 72 73 74 74 74 75 74 73 74 75 76 76 76 75 74 75 76 77 77 77 75 73 72 71 72 72 72 72 69 69 69 73 73 75 75 73 73 73 73
74 72 72 71 72 73 74 74 74 74 73 73 74 74 75 75 75 75 74 74 75 76 76 75 73 72 71 71 71 71 70 69 70 68 70 70 72 75 75 73 73 72 72
71 71 71 72 72 72 73 73 72 72 72 73 73 73 74 74 74 74 73 74 74 74 74 73 72 71 71 71 70 69 68 68 70 69 68 69 72 74 74 73 71 71 71
72 70 70 70 72 71 71 71 71 71 72 74 74 73 72 72 72 73 73 73 73 73 73 72 71 70 70 70 69 67 66 66 66 66 69 68 73 74 73 72 71 71 71
71 70 69 69 69 68 69 70 70 70 71 72 73 72 70 70 71 71 72 72 73 73 72 71 70 69 69 68 68 66 66 66 65 66 68 69 72 74 73 72 72 71 71
71 70 70 69 69 68 68 70 70 70 70 70 71 70 67 69 70 71 70 70 71 71 71 69 68 68 67 67 67 67 66 66 65 66 65 70 73 74 73 72 72 71 71
70 70 71 70 69 69 73 68 68 69 68 68 69 68 68 68 68 71 70 70 70 70 69 68 68 67 66 64 65 66 67 67 66 66 67 69 72 74 73 72 71 71 71
73 73 72 72 71 71 71 68 68 68 67 68 68 68 68 69 68 68 66 67 66 68 66 66 66 64 63 63 64 65 66 67 65 65 68 68 72 74 73 72 72 71 70
74 74 74 73 73 72 72 69 69 69 68 68 68 68 68 66 66 66 65 64 65 66 64 64 63 62 62 63 64 65 66 65 64 65 68 68 70 73 73 73 72 71 70
76 76 75 75 74 73 72 71 70 70 70 69 69 68 67 66 65 66 65 65 65 65 65 63 63 62 61 62 63 64 65 66 65 64 65 66 68 71 73 73 72 71 71
78 77 77 77 75 75 73 72 71 69 70 68 68 69 68 66 65 65 64 65 64 65 64 64 63 62 61 61 62 64 65 66 65 65 65 66 65 68 70 72 72 72 71
77 79 77 76 75 75 74 72 71 70 69 66 66 67 68 67 66 65 64 64 64 64 63 63 62 61 61 62 62 63 64 65 65 66 66 65 65 65 66 69 70 71 71
77 78 78 79 76 75 76 72 72 70 67 66 66 66 70 70 67 65 64 64 64 64 64 63 62 62 61 62 62 62 63 64 64 66 66 66 64 66 65 66 68 69 69
78 76 77 76 75 74 74 72 71 68 67 66 66 65 68 70 67 66 65 64 66 64 62 62 62 63 62 61 61 61 62 62 63 67 65 64 62 62 62 64 65 65 67
77 72 78 75 75 74 73 72 71 67 67 67 66 66 66 70 67 65 64 64 64 63 63 62 62 62 62 62 62 61 61 62 62 66 64 66 64 63 62 63 64 63 64
73 70 75 74 73 73 72 71 70 67 66 66 66 67 67 67 66 64 64 64 64 63 64 63 62 61 61 61 60 60 60 60 60 64 66 64 64 64 62 62 62 62 63
75 73 73 73 72 74 74 74 70 65 63 64 64 66 67 66 66 65 64 62 64 62 62 62 61 60 61 62 59 59 54 55 59 63 64 63 62 63 63 62 62 62 62
70 70 74 74 72 73 73 69 66 64 64 62 61 62 64 66 66 66 63 62 62 61 61 61 61 60 58 60 61 57 52 51 56 59 61 62 60 61 62 64 63 63 62
68 71 70 74 73 73 71 71 69 66 63 63 62 62 63 64 65 64 62 61 59 59 60 60 61 61 60 58 58 59 59 62 56 52 58 59 62 63 62 61 62 63 63
65 64 66 68 73 73 72 71 69 64 64 61 61 62 62 63 63 64 62 60 59 59 59 59 59 60 60 58 58 57 56 57 56 55 53 55 59 61 63 61 62 64 65
60 61 63 64 67 71 70 69 69 66 63 63 62 63 62 63 63 63 62 61 61 59 59 59 60 59 59 59 58 58 57 57 54 54 53 54 55 57 60 60 60 63 64

GFSSE_sfc_temp_114.txt.gz
Temp
72 73 74 75 75 75 74 74 74 74 75 75 76 76 76 76 76 76 76 76 77 78 78 78 77 78 78 78 77 76 76 76 75 76 77 77 77 77 76 75 75 75 75
73 74 73 74 75 75 75 74 74 74 75 75 75 75 75 75 76 76 76 76 77 78 78 77 77 77 77 76 75 74 74 74 74 75 76 77 77 76 76 74 74 74 74
73 74 74 73 74 75 75 75 74 75 75 75 75 75 75 76 76 76 76 76 77 77 78 78 77 76 76 74 74 74 74 74 73 74 75 73 74 76 75 74 74 74 74
73 73 73 73 74 74 74 74 74 75 75 75 75 75 75 75 76 76 75 75 76 77 78 78 77 76 75 73 73 74 73 73 72 73 71 71 75 76 75 74 74 74 74
72 73 73 72 73 74 74 74 74 74 74 74 74 75 75 76 76 75 74 74 76 77 78 78 77 75 73 72 72 73 73 72 72 71 68 70 74 75 75 75 74 74 73
72 73 71 71 72 73 74 74 74 73 73 73 74 75 75 76 76 75 74 74 76 77 77 77 75 73 72 71 72 72 72 70 69 68 68 72 72 75 75 74 73 73 73
71 71 71 70 72 73 74 74 73 74 72 73 74 74 74 75 75 74 74 74 75 76 76 75 73 72 71 71 71 71 69 69 69 66 67 67 71 75 74 74 73 73 72
70 70 71 71 72 72 73 73 72 73 73 72 73 73 74 74 74 74 73 73 74 74 73 73 72 71 71 71 70 68 68 69 69 66 67 69 72 74 74 73 72 72 72
71 69 69 70 71 71 70 70 70 71 71 71 72 72 72 72 72 73 73 73 73 73 72 72 71 70 71 70 68 67 67 68 67 65 69 68 71 72 74 73 72 71 71
69 68 68 68 69 69 70 69 69 70 70 71 71 71 70 71 71 71 71 72 73 73 72 71 70 70 70 68 66 66 67 67 66 66 67 68 71 74 74 73 72 71 71
68 67 68 68 67 67 68 70 69 70 70 70 71 71 68 69 69 70 70 70 71 71 71 70 69 68 67 67 66 66 66 65 66 65 65 70 72 74 73 72 71 71 71
66 66 68 67 67 66 70 68 68 70 69 69 69 68 68 67 68 70 69 69 70 70 69 69 68 67 66 64 64 66 65 66 66 65 65 69 72 74 73 72 71 71 71
69 68 68 67 67 67 68 67 67 67 67 67 67 67 67 67 67 66 65 67 66 68 66 66 66 64 63 62 63 63 64 66 65 66 67 67 71 73 73 72 72 72 71
69 70 69 69 68 68 68 67 67 67 66 67 67 67 67 66 65 65 65 65 64 64 65 66 65 62 62 63 63 63 64 64 64 65 66 66 69 73 74 73 72 72 71
71 71 70 71 69 69 68 67 67 67 67 67 66 67 67 66 66 65 64 64 64 64 64 63 62 62 61 62 62 63 63 64 65 64 64 65 67 71 73 73 73 72 71
74 73 72 71 71 71 69 68 68 68 67 67 67 67 67 66 65 65 64 64 64 64 64 63 62 61 60 60 61 62 63 64 64 64 64 65 64 67 71 73 73 72 71
75 75 73 72 72 71 71 70 69 69 69 67 67 67 67 67 65 65 64 64 64 64 63 62 61 60 59 60 60 61 62 63 63 64 64 64 64 64 67 70 71 71 71
76 74 74 76 72 72 72 71 71 69 69 68 67 67 67 67 66 64 64 64 63 64 63 62 62 61 60 61 59 59 61 63 64 64 64 64 64 66 65 66 68 69 69
72 76 74 74 72 72 73 71 71 69 69 68 66 67 67 67 66 65 64 63 63 63 63 63 62 63 61 60 61 60 61 62 63 65 64 64 64 63 64 64 65 65 67
72 72 75 74 73 73 73 69 68 67 66 67 67 66 66 67 66 65 64 63 64 64 62 62 62 63 62 61 62 61 61 62 62 62 63 65 63 60 61 63 64 63 64
69 65 73 73 73 73 71 67 66 66 65 65 66 66 65 65 66 65 64 63 63 64 64 63 62 61 60 62 60 60 59 61 61 62 62 63 61 61 60 61 62 62 63
67 64 71 73 72 73 72 72 69 68 64 65 64 65 66 65 65 64 64 63 63 62 62 63 62 60 61 61 58 58 54 56 60 60 61 62 61 62 61 62 61 61 62
60 60 65 71 72 73 74 68 63 62 62 60 62 64 64 65 65 65 64 63 62 62 63 62 62 61 59 60 61 58 53 52 56 59 59 61 60 60 61 61 61 63 62
56 61 63 65 69 73 73 69 66 66 64 65 65 64 64 65 64 64 63 62 62 62 62 61 62 61 60 58 60 60 58 57 55 52 57 59 61 60 59 60 60 61 61
53 54 58 60 62 67 68 70 68 68 69 62 63 62 64 64 64 64 62 61 60 59 58 59 60 60 60 59 59 56 57 56 56 56 53 54 57 61 61 60 61 61 61
50 51 53 54 56 59 62 66 66 66 64 62 62 62 62 63 61 62 62 61 60 58 57 58 60 60 60 60 60 58 57 56 55 56 55 54 55 57 60 61 60 61 62

GFSSE_sfc_temp_117.txt.gz
Temp
70 72 73 74 74 74 74 74 74 74 75 76 76 76 76 76 76 76 76 76 77 78 78 78 77 78 78 78 77 77 76 75 75 76 77 77 77 77 76 75 75 75 75
73 73 73 74 74 74 74 74 74 75 75 75 75 75 75 75 76 76 76 76 77 78 78 77 77 77 77 77 75 75 75 74 74 75 76 77 77 77 76 74 74 74 75
73 73 73 73 74 74 75 75 75 75 75 75 75 75 75 75 75 75 75 76 77 77 78 77 77 77 76 75 74 74 74 73 74 74 75 73 75 76 75 74 74 74 75
73 73 73 73 74 74 74 74 75 75 75 75 75 75 75 75 75 75 75 75 76 77 77 77 77 76 75 74 73 73 73 72 72 73 70 71 75 76 75 75 75 75 75
72 73 73 73 73 74 74 74 74 74 74 74 75 75 75 75 75 75 74 74 75 77 77 77 77 75 73 72 72 72 72 71 71 70 68 70 73 76 75 75 74 74 73
71 72 71 71 72 73 74 74 74 73 73 73 74 75 75 75 75 75 74 74 75 77 77 77 75 73 72 71 72 72 71 71 70 67 68 71 71 76 75 73 73 73 73
70 70 71 70 72 73 74 74 73 73 72 73 73 74 75 75 75 74 73 74 75 75 75 74 73 72 71 71 71 70 70 70 68 66 67 68 69 75 75 74 73 72 73
69 70 70 71 71 72 73 73 72 71 72 72 73 73 74 74 73 73 73 73 73 74 73 72 72 71 71 71 70 69 68 69 69 66 67 68 72 74 74 73 72 72 72
69 69 69 70 71 70 70 70 70 71 71 71 72 72 72 72 72 73 73 73 73 73 72 72 71 70 70 70 68 68 67 69 66 66 68 68 73 72 71 72 73 72 71
67 68 68 68 70 70 70 69 69 70 70 70 71 71 70 70 71 71 71 72 72 72 72 71 70 70 70 68 67 67 66 68 66 66 66 67 72 73 72 72 72 71 71
66 66 67 68 68 69 71 70 69 70 70 69 70 70 68 69 69 70 70 70 71 71 70 70 70 69 67 66 66 66 66 65 65 65 65 69 72 74 73 72 71 71 71
65 65 66 67 67 67 70 71 71 71 69 68 69 69 69 68 68 69 69 69 70 70 69 69 68 68 66 64 63 66 63 64 64 65 67 68 72 73 72 71 71 71 71
67 66 66 66 66 66 68 69 69 70 69 66 66 67 67 67 66 66 66 67 67 68 66 66 66 64 63 62 62 62 63 63 63 65 66 68 72 74 73 72 71 71 70
66 68 68 68 67 67 66 68 68 69 69 68 67 66 67 66 65 64 65 64 64 64 64 64 65 62 62 62 62 62 62 62 62 65 66 66 70 73 74 73 72 72 71
67 69 68 68 67 67 66 66 66 67 68 68 68 67 68 68 66 64 64 64 63 63 66 65 64 61 61 61 62 62 62 62 62 63 64 65 66 70 72 73 73 72 71
70 69 69 67 67 68 67 66 66 66 66 65 66 67 66 67 66 65 64 63 63 63 62 64 62 61 60 60 61 62 62 62 62 62 63 64 63 66 70 73 73 73 72
71 72 68 68 68 68 68 67 66 66 66 66 65 65 66 66 65 65 64 63 63 63 62 61 60 59 59 59 60 61 61 61 61 62 62 63 64 62 64 69 71 71 71
71 70 71 72 69 68 68 68 68 67 67 67 66 66 66 66 65 64 64 64 63 62 62 61 62 61 58 58 57 58 60 61 61 61 62 63 64 65 63 65 68 70 70
73 73 71 71 69 68 69 68 68 67 67 67 67 66 66 66 65 64 64 63 63 63 62 62 62 62 61 60 60 57 59 60 61 63 63 64 64 64 64 64 65 66 67
70 73 73 71 71 70 70 67 66 64 66 66 66 67 66 67 66 64 63 62 63 63 63 62 62 62 62 61 61 61 61 62 62 62 63 64 63 62 62 63 64 63 64
62 64 70 69 70 69 68 65 65 65 65 65 66 66 66 67 66 64 63 62 63 64 63 63 62 61 61 61 59 59 59 61 61 62 62 62 62 61 61 61 61 60 62
56 58 63 69 71 70 71 70 69 68 65 65 63 64 66 65 65 64 64 62 63 64 63 62 62 61 61 61 59 57 54 57 60 61 61 61 61 61 61 60 60 60 60
52 53 58 64 69 70 72 70 63 62 62 61 62 64 65 65 64 65 64 63 63 63 63 63 63 61 60 60 61 58 53 52 56 59 60 61 60 60 61 60 60 60 60
49 51 54 57 61 67 68 67 64 65 63 65 66 67 65 65 64 64 64 62 62 63 62 63 63 62 61 59 60 59 58 57 54 52 58 59 60 60 59 59 59 60 62
48 48 51 53 55 59 63 67 65 63 64 61 62 64 63 63 64 64 63 62 62 62 64 62 62 61 61 60 59 57 58 57 56 54 53 55 57 59 60 59 60 60 61
46 47 50 51 52 55 56 58 65 65 63 60 60 61 62 62 62 63 63 62 62 62 60 60 60 61 60 59 59 57 57 55 56 55 54 55 55 56 58 60 59 60 60

GFSSE_sfc_temp_123.txt.gz
Temp
79 82 74 74 75 75 75 74 75 75 75 76 76 76 76 76 76 76 76 76 77 78 79 78 78 78 79 79 78 77 76 76 76 76 77 78 78 77 76 75 76 82 76
81 82 73 74 75 74 74 74 75 75 76 76 76 76 76 76 76 76 76 76 77 78 78 78 78 78 78 77 76 76 75 75 75 76 76 76 77 77 76 75 76 79 75
80 80 78 74 74 74 75 75 75 76 76 76 76 76 76 76 76 76 76 76 77 78 78 78 78 78 77 76 75 75 75 74 74 75 76 84 83 77 76 74 74 75 75
81 80 80 73 74 74 74 75 75 76 76 76 76 76 76 76 76 76 75 75 76 77 78 78 78 78 76 74 74 74 74 74 73 73 82 83 82 76 76 75 75 75 75
81 81 79 73 73 74 74 74 75 75 75 75 75 76 76 76 76 76 75 75 76 77 78 78 77 75 74 73 72 72 72 72 71 77 82 79 82 77 76 75 75 74 75
80 81 74 72 72 73 74 74 74 74 74 74 74 75 76 76 76 75 74 75 76 77 78 78 76 74 72 72 71 72 71 71 72 82 82 79 79 76 76 74 74 73 73
78 79 77 71 72 73 74 74 74 73 73 73 74 74 75 75 75 74 74 74 75 76 76 75 73 72 71 71 71 71 70 70 80 79 80 80 79 75 75 74 72 73 73
76 77 77 72 72 72 73 73 72 72 72 73 73 74 74 74 74 73 73 74 74 74 73 73 72 71 71 71 70 69 69 70 77 79 79 79 74 74 74 74 72 72 72
75 75 75 76 75 71 70 71 70 71 71 72 72 72 72 72 72 73 73 73 73 73 72 72 71 71 71 70 69 68 68 69 79 78 78 78 72 71 70 71 73 72 72
74 75 74 75 76 76 76 69 69 70 70 71 71 71 70 70 71 72 72 72 72 72 72 71 71 70 70 69 68 67 67 68 80 79 79 77 72 73 72 71 71 72 72
72 74 74 75 75 76 75 74 70 70 70 70 71 70 70 79 78 77 74 71 71 71 71 71 70 69 68 68 68 67 68 79 79 80 78 70 72 74 72 71 71 71 72
71 71 74 75 75 75 76 74 75 76 76 77 77 76 77 78 78 78 74 70 70 70 70 70 69 67 69 73 74 69 78 77 79 78 80 68 72 72 72 71 71 71 71
75 74 73 74 75 75 75 75 74 76 73 74 74 74 75 76 75 77 76 77 78 72 77 74 74 75 70 69 74 76 77 76 79 79 74 67 71 73 73 72 72 72 71
74 74 74 74 73 73 76 74 74 73 72 71 72 72 72 72 73 74 75 74 77 77 75 76 76 69 74 73 74 74 75 76 78 79 76 66 67 73 72 71 72 72 71
75 74 73 71 71 71 72 74 74 71 71 72 71 72 72 72 71 73 74 73 74 75 75 74 73 74 74 73 73 74 74 74 75 77 77 65 65 70 72 71 71 72 72
78 75 74 72 72 72 71 73 72 72 72 72 72 72 72 73 71 70 71 72 71 74 74 74 73 72 74 73 71 69 72 74 75 75 76 75 64 64 70 71 69 69 72
80 78 73 72 73 72 71 72 72 72 72 72 72 72 71 72 72 69 69 71 73 71 71 71 69 68 72 71 70 68 73 73 74 74 75 75 74 61 64 69 68 69 70
81 78 75 74 72 72 73 72 72 71 71 71 71 71 71 71 71 69 67 69 71 69 67 66 65 65 70 71 71 71 71 71 72 73 74 74 75 76 65 64 68 68 67
80 79 76 74 73 72 73 73 73 71 70 69 69 69 70 70 70 68 68 69 69 69 67 65 64 66 65 65 69 70 70 69 71 72 72 73 73 73 74 66 64 65 65
80 78 78 75 74 73 73 73 72 71 72 71 71 72 70 70 68 69 69 68 69 67 67 67 67 65 66 67 66 67 67 68 69 70 71 73 73 73 73 73 70 65 63
65 70 76 73 74 73 72 70 71 69 70 70 73 74 73 72 69 69 69 68 67 67 66 66 65 63 63 64 62 61 61 64 64 65 70 69 70 71 71 70 70 64 63
57 59 64 70 73 72 74 74 74 73 72 71 71 72 73 72 71 71 69 68 67 66 66 65 64 62 63 63 62 62 58 61 62 66 64 66 68 71 69 69 66 64 64
53 54 58 62 65 71 74 74 71 71 69 67 68 68 69 72 72 72 70 69 67 67 65 65 64 65 62 63 67 67 58 60 62 64 63 65 66 65 67 68 67 63 64
51 53 57 61 63 65 68 71 69 69 68 70 69 68 68 71 72 72 69 69 68 67 67 66 67 67 67 63 64 65 68 69 64 61 64 63 64 67 64 65 66 63 63
49 51 55 59 59 59 63 65 68 68 72 74 71 68 67 68 69 70 68 67 67 67 68 66 67 67 67 67 65 63 62 62 65 63 61 61 64 65 65 63 65 63 63
48 50 53 54 54 56 57 57 58 66 69 67 69 68 68 67 66 66 66 66 66 65 66 66 68 69 67 66 67 65 63 61 59 61 58 60 59 63 65 62 61 62 62

GFSSE_sfc_temp_129.txt.gz
Temp
103 91 74 75 76 76 75 75 75 76 76 76 76 76 76 76 76 76 76 77 78 79 79 79 79 79 79 79 79 78 77 76 76 77 78 78 78 77 77 76 76 82 76
103 90 74 75 75 76 75 75 75 76 76 77 76 76 76 76 76 76 76 77 78 79 79 79 79 79 79 79 77 77 76 76 75 76 77 78 77 77 77 76 77 79 76
99 91 83 74 75 75 76 76 76 77 77 77 76 76 76 76 76 76 76 76 78 79 79 79 79 79 79 77 76 76 76 75 75 75 76 87 85 76 78 76 75 75 76
100 93 88 73 74 75 75 75 76 77 77 76 76 76 76 76 76 76 76 76 77 78 79 79 79 78 77 76 75 75 75 75 74 75 84 84 84 76 77 76 75 75 76
99 96 90 73 74 75 75 75 75 76 76 76 76 76 76 76 76 76 75 75 76 78 79 79 78 76 75 74 74 74 74 74 74 77 77 83 82 79 77 76 75 75 75
98 97 75 72 73 74 74 75 75 74 74 74 75 76 76 76 76 76 75 75 76 77 78 78 76 75 73 73 73 73 72 73 72 85 84 82 83 76 76 76 74 74 73
95 95 83 71 72 74 75 75 74 74 74 74 75 75 76 76 76 75 74 75 76 76 77 76 75 73 73 72 72 72 72 72 83 83 83 82 81 76 76 74 74 72 72
92 92 86 74 72 73 74 74 73 73 73 73 74 74 75 75 74 74 74 74 75 75 75 74 73 72 72 72 71 71 71 71 82 82 83 81 75 76 74 72 71 71 71
90 89 84 82 78 71 71 71 71 72 72 73 73 73 73 73 73 74 74 74 74 74 74 73 72 72 71 71 71 70 69 71 79 86 84 77 72 74 73 71 70 70 71
87 87 82 83 83 81 81 70 70 71 71 72 72 72 71 71 72 72 73 73 74 74 73 72 71 71 71 70 69 69 69 71 82 81 85 77 72 74 73 72 72 71 71
87 87 83 82 86 84 84 80 71 71 71 71 72 71 72 82 80 79 77 72 73 72 72 71 71 70 69 69 69 69 69 84 80 80 85 69 72 73 73 72 72 72 72
89 87 89 83 87 86 89 85 82 82 82 82 82 80 82 84 84 85 78 71 70 71 71 71 70 69 69 82 79 70 81 81 87 77 85 69 72 73 74 72 72 71 71
92 92 89 85 88 87 89 89 86 86 84 84 83 83 82 85 82 83 83 80 81 72 80 76 76 80 81 80 79 83 84 85 86 78 74 69 72 74 74 72 71 71 69
91 93 90 90 87 87 90 90 89 89 87 86 85 83 83 84 82 82 82 80 81 82 82 81 83 82 83 84 84 79 82 83 79 79 72 68 71 74 74 72 72 71 70
89 91 92 88 87 87 85 90 88 87 88 88 87 85 85 85 83 83 82 82 81 83 81 80 83 82 82 82 83 83 80 81 84 85 75 67 68 71 74 74 73 71 70
87 89 90 90 84 87 86 86 87 87 87 82 83 86 84 85 85 83 78 79 80 81 80 78 80 77 81 79 80 82 82 79 79 81 72 70 66 68 70 73 74 73 70
86 88 88 88 86 82 85 85 87 88 88 85 83 81 78 83 85 84 84 79 84 83 80 78 78 79 80 79 78 78 82 82 84 81 83 71 69 64 66 69 71 71 70
85 85 87 90 87 84 83 85 86 87 87 87 85 84 76 79 84 83 82 83 80 82 80 80 79 78 79 76 76 76 78 79 80 80 78 79 71 75 65 65 68 69 70
85 84 85 86 87 84 81 83 84 84 86 87 87 86 80 76 81 81 74 78 81 81 79 79 79 79 78 80 75 76 79 78 77 79 76 77 78 80 77 65 65 66 67
80 81 79 80 81 86 85 80 85 86 85 86 87 85 85 79 76 81 77 75 76 81 77 73 72 73 77 79 80 76 73 75 77 76 77 78 77 76 77 77 74 72 63
73 72 73 74 75 82 83 75 81 81 83 82 85 84 85 83 76 75 77 75 73 74 73 72 70 70 73 76 72 72 74 74 76 78 78 76 75 76 77 75 76 75 72
67 69 69 71 72 76 83 83 81 84 84 84 84 83 83 82 79 76 75 79 72 71 72 70 69 68 72 72 71 69 66 73 75 75 77 78 79 80 76 78 78 75 73
57 59 62 66 71 74 74 82 81 86 85 83 83 84 83 83 80 75 73 79 73 74 76 70 69 70 68 68 72 72 68 67 74 77 74 74 76 78 79 76 74 75 75
51 52 54 58 64 70 68 64 75 78 82 84 83 85 85 83 82 78 76 78 77 75 76 75 71 70 70 65 68 73 75 76 71 72 76 74 73 73 71 72 74 74 75
47 47 48 53 58 62 59 61 71 72 83 83 80 78 80 81 81 81 75 78 78 80 76 78 70 69 70 72 69 70 71 74 74 71 68 71 73 73 74 73 74 74 74
44 44 46 49 52 58 56 56 64 71 68 65 65 69 72 71 73 74 77 76 78 78 75 76 74 68 71 71 71 71 71 68 69 69 68 71 72 74 74 73 72 73 72

GFSSE_sfc_temp_132.txt.gz
Temp
86 79 75 76 76 76 75 75 75 75 76 76 76 76 76 76 76 76 77 77 77 78 79 79 78 79 79 79 78 77 77 76 76 76 77 78 78 78 77 76 77 78 76
87 82 74 75 76 76 76 75 75 75 76 76 76 76 76 76 76 76 76 77 78 79 79 79 78 79 79 78 77 77 76 75 75 76 76 77 77 78 77 77 78 76 75
88 83 79 74 75 75 76 76 76 76 76 76 76 76 76 76 76 76 76 77 77 78 79 79 79 79 78 77 76 76 75 75 75 74 76 77 77 78 77 76 75 75 75
92 84 82 73 75 75 75 75 76 77 77 76 76 76 76 76 76 76 76 76 77 78 79 79 79 78 77 76 75 75 75 75 75 74 75 76 79 77 77 76 76 76 76
95 87 82 73 74 74 75 75 76 76 76 75 75 76 76 76 76 76 75 75 77 78 78 79 78 76 75 74 74 74 74 74 74 75 72 67 74 77 76 76 75 75 75
96 91 72 72 73 74 75 75 75 75 75 75 75 76 76 76 76 75 75 75 76 77 78 78 76 75 73 73 73 73 73 73 72 74 73 76 77 76 77 75 74 74 74
86 80 77 71 73 74 75 75 74 74 74 74 75 75 75 76 76 75 74 75 75 76 77 76 75 73 73 72 72 72 72 72 76 76 76 74 74 76 77 74 72 73 73
84 82 77 73 73 73 74 74 73 73 73 73 74 74 75 75 74 74 74 74 75 75 74 74 73 73 72 72 72 71 71 70 77 76 76 73 74 75 75 73 72 71 71
87 82 78 77 75 71 71 71 71 72 72 73 73 73 73 73 73 74 74 74 74 74 74 73 72 72 71 71 71 70 69 71 71 73 76 73 74 75 75 73 72 71 71
86 84 78 78 77 76 75 70 70 71 71 71 72 72 72 72 72 73 73 73 74 74 73 72 71 71 71 70 70 69 69 71 70 76 74 72 73 75 74 73 72 72 71
84 81 77 77 79 78 78 75 70 71 71 71 72 71 70 75 74 74 73 72 73 73 72 71 71 70 69 69 69 69 69 73 75 75 69 70 73 75 74 73 72 72 72
82 84 81 78 77 79 83 78 75 76 75 75 75 73 75 76 76 78 75 71 72 71 71 71 70 69 68 71 68 68 69 73 73 71 68 69 73 74 73 72 72 72 72
84 84 84 80 79 79 82 80 78 78 76 76 76 75 75 77 76 76 75 73 72 70 72 70 69 71 72 73 73 71 73 74 73 75 68 69 72 74 74 73 72 72 71
82 83 85 81 79 77 80 83 80 79 77 77 77 77 75 76 75 75 75 75 74 73 73 72 72 72 73 75 74 72 74 71 69 70 67 68 70 73 74 73 72 72 71
79 80 79 83 79 80 80 82 82 79 79 78 78 78 77 76 75 76 76 75 75 75 74 73 74 74 73 74 75 75 74 74 76 71 67 67 69 72 74 74 73 72 71
78 78 78 78 80 80 77 80 78 79 79 79 79 78 78 77 76 76 75 75 75 75 75 73 74 73 73 75 74 75 76 75 75 71 70 67 66 69 71 73 73 73 72
79 80 75 75 77 79 78 77 81 74 80 79 78 78 78 78 77 77 75 75 75 75 74 73 73 71 71 72 72 73 74 76 76 75 70 69 67 65 67 70 71 72 72
71 74 76 79 76 76 79 76 79 81 79 80 78 77 76 77 78 76 75 75 75 74 74 73 71 70 70 69 71 71 73 74 75 75 73 69 69 71 66 66 68 70 70
67 68 70 70 70 71 69 76 77 76 79 80 78 78 77 75 76 75 75 75 75 74 73 72 71 70 69 69 70 68 69 71 72 76 73 73 69 69 69 66 65 66 67
62 63 63 66 69 68 69 68 74 74 77 80 79 79 77 75 75 75 75 73 73 74 72 71 70 70 69 69 74 72 71 71 70 70 72 74 72 72 71 69 65 65 64
57 57 59 60 62 64 66 65 67 70 72 73 79 79 78 75 73 73 74 72 72 71 72 70 68 66 65 68 66 65 66 67 67 67 68 71 72 73 71 71 68 67 65
51 52 53 56 58 59 62 66 65 67 71 74 78 79 78 76 73 74 73 72 72 73 70 69 68 66 67 68 63 63 59 62 66 68 70 69 68 70 71 72 70 68 66
47 48 50 51 53 55 58 62 61 63 68 71 73 77 77 78 74 73 73 73 71 71 71 69 69 68 63 67 67 63 58 56 62 67 68 69 68 67 69 68 69 71 67
44 46 47 49 50 54 56 58 57 57 59 70 73 76 77 77 75 73 72 73 71 71 70 70 69 68 67 65 64 68 66 64 60 58 64 65 66 66 66 67 67 67 69
43 42 44 46 49 52 53 55 54 56 62 69 74 74 76 75 75 74 71 71 71 69 69 70 69 67 68 68 65 62 65 66 64 61 57 60 63 65 66 65 65 65 68
40 39 40 43 48 49 50 53 53 54 59 65 63 68 73 71 73 73 71 70 71 71 69 69 69 68 67 67 67 66 65 62 63 62 60 62 61 64 67 67 66 67 68